Weather in Askania Nova

Ukraine / Kherson District     46°27′02″N   33°51′59″E
temp.,
°C
wind,
m/s
gust,
m/s
humid.,
%
clouds,
%
prec.,
mm/h
press.,
hPa
HPBL,
m
24 february, wed
wed2423:00−3e6106897 0.0 1038532
02:00−4e696999 0.0 1037526
05:00−4e6968100 0.0 1038536
08:00−4e6875100 0.1 1038504
11:00−1ese676187 0.0 1038619
14:000e445991 0.0 1037738
17:00−2ese356133 0.0 1036499
20:00−4ese356636 0.0 1037246
25 february, thu
thu2523:00−4ese346551 0.0 1037162
02:00−3e116661 0.0 103634
05:00−3sse346687 0.0 1035138
08:00−1ssw346393 0.0 1035279
11:00+2sw3557100 0.0 1034363
14:00+2sw4666100 0.0 1033369
17:00+2wsw378395 0.0 1031228
20:00+1wsw369582 0.0 1031132
26 february, fri
fri2623:00+2wsw3697100 0.0 1030132
02:00+3wsw3797100 0.0 1030163
05:00+3w3597100 0.0 1029121
08:00+4w3498100 0.0 1029113
11:00+9w468082 0.0 1028527
14:00+11w587687 0.0 1026665
17:00+9sw598036 0.0 1024271
20:00+6sw5109318 0.0 1023285
27 february, sat
sat2723:00+6wsw612930 0.0 1022334
02:00+5wsw511944 0.0 1021287
05:00+4wsw379719 0.0 1019164
08:00+5w349655 0.0 1019194
11:00+6wsw3494100 0.0 1017209
14:00+9wnw4677100 0.4 1016642
17:00+7nw4891100 1.5 1016461
20:00+6nw4984100 2.4 1017468
28 february, sun
sun2823:00+3nnw488687 0.0 1018286
02:00+1nw498949 0.0 1019266
05:00+2nw599290 0.0 1019337
08:00+2nnw579590 0.1 1020436
11:00+5nnw696565 0.1 10211206
14:00+3nnw698882 0.4 1021655
17:00+4nnw586599 0.1 10221188
20:00+2nnw597499 0.4 1024973